Charlotte, NC

3:46 AM EST on January 23, 2017 (GMT -0500)
Charlotte-Douglas International

Weather History for KCLT - November, 2002

Change the Weather History Date:

Monday, November 11, 2002

  Actual Average Record
Temperature  
Mean Temperature 66 °F 52 °F  
Max Temperature 71 °F 64 °F 78 °F (1890)
Min Temperature 60 °F 41 °F 24 °F (1973)
Degree Days  
Heating Degree Days 0 13  
Month to date heating degree days 126  
Since 1 July heating degree days 332  
Cooling Degree Days 0 0  
Month to date cooling degree days 0  
Year to date cooling degree days 1513  
Growing Degree Days 16 (Base 50)    
Moisture  
Dew Point 65 °F    
Average Humidity 96    
Maximum Humidity 100    
Minimum Humidity 88    
Precipitation  
Precipitation 0.36 in 0.09 in 1.82 in (2009)
Month to date precipitation 1.10  
Year to date precipitation 36.34  
Snow  
Snow 0.00 in 0.00 in 1.70 in (1968)
Month to date snowfall 0.0  
Since 1 July snowfall 0.0  
Since 1 September snowfall 0.0  
Snow Depth -    
Sea Level Pressure  
Sea Level Pressure 29.89 in    
Wind  
Wind Speed 10 mph (South)    
Max Wind Speed 15 mph    
Max Gust Speed 26 mph    
Visibility 8 miles    
Events Rain , Thunderstorm    
T = Trace of Precipitation, MM = Missing Value Source: NWS Daily Summary

Daily Weather History Graph

Daily Weather History Graph

Search for Another Location

Airport or City:

Trip Planner

Search our weather history database for the weather conditions in past years. The results will help you decide how hot, cold, wet, or windy it might be!

Date:

Astronomy

Nov. 11, 2002 Rise Set
Actual Time 6:54 AM EST 5:20 PM EST
Civil Twilight 6:27 AM EST 5:47 PM EST
Nautical Twilight 5:57 AM EST 6:17 PM EST
Astronomical Twilight 5:27 AM EST 6:47 PM EST
Moon 1:30 PM EST (11/11) 11:54 PM EST (11/11)
Length of Visible Light 11h 19m
Length of Day
10h 25m
Waxing Crescent, 48% of the Moon is Illuminated
Nov 11
Waxing Crescent
Nov 11
First Quarter
Nov 19
Full
Nov 27
Last Quarter
Dec 4
New

Hourly Weather History & Observations

Time (EST) Temp. Dew Point Humidity Pressure Visibility Wind Dir Wind Speed Gust Speed Precip Events Conditions
12:51 AM 70.0 °F 66.9 °F 90% 29.76 in 10.0 mi South 12.7 mph 21.9 mph N/A   Overcast
1:51 AM 69.1 °F 66.9 °F 93% 29.77 in 10.0 mi South 12.7 mph 20.7 mph 0.00 in   Overcast
2:02 AM 69.8 °F 66.2 °F 88% 29.78 in 10.0 mi South 15.0 mph - 0.00 in   Overcast
2:35 AM 69.8 °F 66.2 °F 88% 29.78 in 10.0 mi South 11.5 mph - 0.00 in   Overcast
2:51 AM 69.1 °F 66.9 °F 93% 29.76 in 10.0 mi South 15.0 mph - 0.00 in   Overcast
3:32 AM 69.8 °F 66.2 °F 88% 29.78 in 10.0 mi South 12.7 mph - 0.00 in   Overcast
3:51 AM 69.1 °F 66.9 °F 93% 29.75 in 10.0 mi South 12.7 mph - 0.00 in   Overcast
4:26 AM 68.0 °F 66.2 °F 94% 29.76 in 9.0 mi South 11.5 mph - 0.01 in   Overcast
4:51 AM 69.1 °F 68.0 °F 96% 29.75 in 10.0 mi South 10.4 mph - 0.01 in   Overcast
5:51 AM 70.0 °F 68.0 °F 93% 29.75 in 10.0 mi South 12.7 mph - N/A   Overcast
6:51 AM 71.1 °F 69.1 °F 93% 29.81 in 8.0 mi SSW 11.5 mph 18.4 mph 0.01 in Rain , Thunderstorm Light Thunderstorms and Rain
7:03 AM 69.8 °F 68.0 °F 94% 29.85 in 0.2 mi SSW 15.0 mph 26.5 mph 0.12 in Rain , Thunderstorm Heavy Thunderstorms and Rain
7:09 AM 68.0 °F 66.2 °F 94% 29.84 in 3.0 mi South 12.7 mph 26.5 mph 0.13 in Rain , Thunderstorm Light Thunderstorms and Rain
7:41 AM 66.2 °F 64.4 °F 94% 29.87 in 8.0 mi South 6.9 mph - 0.14 in Rain Rain
7:51 AM 64.9 °F 64.0 °F 97% 29.88 in 8.0 mi South 9.2 mph - 0.15 in Rain Rain
8:00 AM 64.4 °F 62.6 °F 94% 29.90 in 6.0 mi SW 10.4 mph 21.9 mph 0.03 in Rain , Thunderstorm Thunderstorms and Rain
8:39 AM 64.4 °F 62.6 °F 94% 29.91 in 2.5 mi Calm Calm - 0.11 in Rain Heavy Rain
8:51 AM 64.0 °F 63.0 °F 96% 29.86 in 4.0 mi SSE 8.1 mph - 0.14 in Rain Rain
9:43 AM 64.4 °F 64.4 °F 100% 29.90 in 10.0 mi South 10.4 mph - 0.01 in Rain Light Rain
9:51 AM 64.0 °F 64.0 °F 100% 29.88 in 10.0 mi South 13.8 mph - 0.01 in Rain Light Rain
10:51 AM 64.9 °F 64.0 °F 97% 29.89 in 10.0 mi South 10.4 mph - 0.01 in Rain Light Rain
11:51 AM 64.9 °F 64.0 °F 97% 29.93 in 10.0 mi South 12.7 mph - 0.00 in Rain Light Rain
12:51 PM 64.9 °F 63.0 °F 93% 29.89 in 10.0 mi SSW 8.1 mph - 0.00 in   Overcast
1:44 PM 64.4 °F 64.4 °F 100% 29.92 in 10.0 mi Variable 3.5 mph - 0.01 in Rain Light Rain
1:51 PM 64.9 °F 64.0 °F 97% 29.91 in 10.0 mi Variable 3.5 mph - 0.01 in   Overcast
2:15 PM 64.4 °F 64.4 °F 100% 29.92 in 10.0 mi South 5.8 mph - N/A   Overcast
2:51 PM 66.0 °F 64.0 °F 93% 29.91 in 10.0 mi Variable 4.6 mph - N/A   Overcast
3:51 PM 66.0 °F 64.0 °F 93% 29.94 in 10.0 mi SSW 8.1 mph - N/A   Overcast
4:51 PM 66.0 °F 64.0 °F 93% 29.94 in 10.0 mi Calm Calm - N/A   Overcast
5:51 PM 64.0 °F 64.0 °F 100% 29.96 in 10.0 mi Calm Calm - N/A   Overcast
6:51 PM 64.9 °F 64.0 °F 97% 29.99 in 10.0 mi Calm Calm - N/A   Mostly Cloudy
7:51 PM 63.0 °F 63.0 °F 100% 29.98 in 7.0 mi Calm Calm - N/A   Overcast
8:51 PM 60.1 °F 60.1 °F 100% 30.01 in 7.0 mi Calm Calm - N/A   Overcast
9:20 PM 62.6 °F 62.6 °F 100% 30.02 in 6.0 mi South 4.6 mph - N/A   Overcast
9:51 PM 63.0 °F 63.0 °F 100% 30.02 in 3.0 mi South 3.5 mph - N/A   Overcast
10:34 PM 62.6 °F 62.6 °F 100% 30.04 in 2.5 mi SSE 8.1 mph - N/A   Overcast
10:42 PM 62.6 °F 62.6 °F 100% 30.04 in 0.5 mi SSE 9.2 mph - N/A   Overcast
10:51 PM 63.0 °F 63.0 °F 100% 30.03 in 0.5 mi SSE 9.2 mph - N/A   Overcast
11:51 PM 64.0 °F 64.0 °F 100% 30.04 in 0.5 mi South 6.9 mph - 0.02 in Rain Rain